Tracking 29090 objects as of 15-Jul-2024
HD Live streaming from Space Station
objects crossing your sky now

COSMOS 2209

Track COSMOS 2209 now!
COSMOS 2209 is classified as:


NORAD ID: 22112
Int'l Code: 1992-059A
Perigee: 35,736.2 km
Apogee: 35,788.0 km
Inclination: 14.1 °
Period: 1,434.5 minutes
Semi major axis: 42133 km
RCS: 5.0119 m2 (large)
Launch date: September 10, 1992
Source: Commonwealth of Independent States (former USSR) (CIS)
Launch site: TYURATAM MISSILE AND SPACE COMPLEX (TTMTR)
Your satellite tracking list
Your tracking list is empty




NASA's NSSDC Master Catalog

Two Line Element Set (TLE):
1 22112U 92059A   24196.47463701 -.00000119  00000-0  00000-0 0  9999
2 22112  14.0612 347.8540 0006147 322.5265  48.0597  1.00384633116579
Source of the keplerian elements: AFSPC